Regional Weather Roundup
Issued by NWS

Home | Current Version | Previous Version | Text Only | Print | Product List | Glossary Off
Versions: 1 2 3 4 5 6 7 8 9 10 11 12 13 14 15 16 17 18 19 20 21 22 23 24 25 26 27 28 29 30 31 32 33 34 35 36 37 38 39 40 41 42 43 44 45 46 47 48 49 50

000
ASUS43 KLMK 261510
RWRKY
KENTUCKY REGIONAL WEATHER ROUNDUP
NATIONAL WEATHER SERVICE LOUISVILLE KY
1100 AM EDT TUE SEP 26 2017

NOTE "FAIR" INDICATES FEW OR NO CLOUDS BELOW 12,000 FEET
WITH NO SIGNIFICANT WEATHER AND/OR OBSTRUCTIONS TO VISIBILITY.

KYZ001>023-026-027-061>063-070>075-261600-
WESTERN AND SOUTH CENTRAL KENTUCKY

CITY           SKY/WX    TMP DP  RH WIND       PRES   REMARKS
PADUCAH        SUNNY     83  67  58 CALM      30.02R
HENDERSON      SUNNY     82  68  62 CALM      30.03R
OWENSBORO      SUNNY     83  67  58 S6        30.03S
HOPKINSVILLE   SUNNY     80  68  66 CALM      30.02S
BOWLING GREEN  SUNNY     79  69  71 CALM      30.03S
GLASGOW        SUNNY     79  66  64 CALM      30.04S
$$

KYZ024-025-028>034-038-045-046-053-261600-
NORTH CENTRAL KENTUCKY

CITY           SKY/WX    TMP DP  RH WIND       PRES   REMARKS
LOUISVILLE/SDF SUNNY     79  66  64 CALM      30.03S
LOUISVILLE/LOU SUNNY     80  67  64 CALM      30.04S
FORT KNOX      SUNNY     78  66  67 CALM      30.03R
$$

KYZ035>037-039>044-047>052-055>060-089>105-261600-
NORTHEAST KENTUCKY

CITY           SKY/WX    TMP DP  RH WIND       PRES   REMARKS
LEXINGTON      SUNNY     81  66  60 VRB3      30.06S
COVINGTON      SUNNY     82  68  62 CALM      30.05S
FRANKFORT      SUNNY     79  65  62 CALM      30.04S
$$

KYZ054-064>069-076>088-106>120-261600-
SOUTHEAST KENTUCKY

CITY           SKY/WX    TMP DP  RH WIND       PRES   REMARKS
JACKSON        SUNNY     75  65  70 NW3       30.07S
LONDON         SUNNY     75  64  68 S3        30.07R
SOMERSET       SUNNY     72  64  78 CALM      30.08S
MIDDLESBORO    PTSUNNY   64  64  99 CALM      30.09S
MONTICELLO     SUNNY     78  66  66 NW9       30.07S
$$




USA.gov is the U.S. government's official web portal to all federal, state and local government web resources and services.